星链-3891 (STARLINK-3891 )

导读 | 豆包AI

STARLINK-3891是美国SpaceX公司星链(Starlink)卫星互联网项目的成员,于2022年5月14日发射升空,作为星链星座的一员,它旨在为全球提供高速低延迟互联网接入服务,填补偏远地区网络覆盖空白,助力全球互联与数字经济发展。

基本信息
目录编号:
52650
目录名称:
STARLINK-3891
国际标识:
2022-052BE
轨道中心:
EARTH
卫星名称:
星链-3891
卫星全名:
星链-3891 (STARLINK-3891 )
卫星状态:
在轨 (已飞行1401 天)
发射日期:
2022-05-14 UTC
国别 :
美国 (US)
星等 :
--
轨道信息
数据来源 国际轨道数据 AOE轨道数据
星历时间 2026-03-14T21:32:10+0800
12小时前
查看轨道信息
2026-03-11T02:00:00+0800
4天前
查看轨道信息
半长轴 6917.834km 6917.852km
偏心率 0.0001054 0.0000972
轨道倾角 53.217° 53.215°
近地点辐角 117.267° 108.548°
升交点赤经 227.343° 244.469°
平近点角 242.843° 43.185°
近地点 538.967km 539.042km
远地点 540.427km 540.388km
周期 95.437分钟 95.437分钟
每日圈数 15.088554 15.088493
详细信息
固有亮度:
5
最大亮度:
2.5
卫星平台:
Starlink v1.5
覆盖范围:
全球
运营商:
太空探索技术公司
运营商所在国:
美国
制造商(研发单位):
太空探索技术公司
制造商所在国:
美国
使用方式:
暂无
卫星简介
星链(Starlink)计划是由太空探索技术公司(SpaceX)提出的一个巨型低轨卫星互联网星座项目,计划在2019年至2024年间在太空搭建由约1.2万颗卫星组成的“星链”网络,其中1584颗将部署在地球上空550千米处的近地轨道,并从2020年开始工作。该卫星仍在工作。
2D轨道图
3D轨道图
轨道高度分析图
轨道倾角分析图
轨道综合分析图
查看轨道综合分析图